Track CELESTIS 16 (OTB) now! 10-day predictions CELESTIS 16 (OTB) is classified as:
1 44341U 19036C 26041.34972395 .00001608 00000-0 30378-3 0 9999 2 44341 23.9974 63.6767 0011154 51.7049 308.4445 14.56931278352852